{"data":{"norad_id":48482,"intl_designator":"2021-040BG","name":"STARLINK-2525","alt_names":[],"object_type":"PAYLOAD","status":"ACTIVE","operator":null,"country":"US","launch_date":"2021-05-09","launch_site_code":"AFETR","launch_vehicle":null,"mission":null,"orbit_class":"UNKNOWN","rcs_meters":null,"size_class":null,"mass_kg":null,"dimensions":null,"purposes":["comms"],"wikipedia_slug":null,"has_3d_model":false,"image_url":null,"decayed_at":null,"tle_current":{"epoch":"2026-09-19T15:51:53.511264Z","epoch_age_seconds":109668,"freshness":"FRESH","line1":"1 48482U 21040BG  26262.66103601  .00002681  00000+0  98101-4 0  9993","line2":"2 48482  53.1602  11.1991 0001157  81.5303 278.5829 15.31711486296185","mean_motion":15.31711486,"eccentricity":0.0001157,"inclination_deg":53.1602,"raan_deg":11.1991,"arg_perigee_deg":81.5303,"mean_anomaly_deg":278.5829,"bstar":9.8101e-5,"rev_number":29618,"period_min":94.012482974878,"perigee_km":469.91334516439,"apogee_km":471.49816737819,"semimajor_km":6848.8427562713,"source":"CELESTRAK","updated_at":"2026-09-20T09:00:39.131124Z"}}}